| time (UTC) | temp F | wind direction | speed knots | gust knots | rain 1hr in | rain 24hr in | rain mn in | humidity % | barometer mb |
| 20260505214218 | 51 | 63 | 4.3 | 5.2 | 0.00 | 0.00 | 0.00 | 58 | 884.0 |
| 20260505213715 | 51 | 85 | 4.3 | 7.0 | 0.00 | 0.00 | 0.00 | 59 | 884.0 |
| 20260505213212 | 50 | 20 | 3.5 | 5.2 | 0.00 | 0.00 | 0.00 | 60 | 884.2 |
| 20260505212708 | 50 | 67 | 4.3 | 6.1 | 0.00 | 0.00 | 0.00 | 61 | 884.4 |
| 20260505212206 | 50 | 75 | 2.6 | 2.6 | 0.00 | 0.00 | 0.00 | 61 | 884.5 |
| 20260505211702 | 50 | 45 | 4.3 | 5.2 | 0.00 | 0.00 | 0.00 | 60 | 884.6 |
| 20260505211200 | 51 | 63 | 1.7 | 1.7 | 0.00 | 0.00 | 0.00 | 60 | 884.3 |
| 20260505210656 | 51 | 88 | 4.3 | 5.2 | 0.00 | 0.00 | 0.00 | 59 | 884.1 |
| 20260505210153 | 50 | 41 | 2.6 | 5.2 | 0.00 | 0.00 | 0.00 | 60 | 884.5 |
| 20260505205651 | 50 | 81 | 6.1 | 7.8 | 0.00 | 0.00 | 0.00 | 61 | 884.6 |
| 20260505205149 | 50 | 105 | 6.1 | 7.8 | 0.00 | 0.00 | 0.00 | 62 | 884.6 |
| 20260505204645 | 50 | 56 | 3.5 | 6.1 | 0.00 | 0.00 | 0.00 | 62 | 884.6 |
| 20260505204143 | 51 | 39 | 4.3 | 6.1 | 0.00 | 0.00 | 0.00 | 59 | 884.5 |
| 20260505203640 | 52 | 64 | 3.5 | 5.2 | 0.00 | 0.00 | 0.00 | 59 | 884.3 |
| 20260505203137 | 51 | 40 | 2.6 | 5.2 | 0.00 | 0.00 | 0.00 | 61 | 884.3 |
| 20260505202632 | 52 | 94 | 5.2 | 7.0 | 0.00 | 0.00 | 0.00 | 59 | 884.3 |
| 20260505202128 | 51 | 66 | 4.3 | 6.1 | 0.00 | 0.00 | 0.00 | 61 | 884.5 |
| 20260505201625 | 51 | 84 | 5.2 | 6.1 | 0.00 | 0.00 | 0.00 | 61 | 884.7 |
| 20260505201123 | 51 | 167 | 0.9 | 1.7 | 0.00 | 0.00 | 0.00 | 60 | 884.7 |
| 20260505200621 | 50 | 78 | 1.7 | 1.7 | 0.00 | 0.00 | 0.00 | 62 | 884.5 |
| 20260505200118 | 49 | 133 | 2.6 | 2.6 | 0.00 | 0.00 | 0.00 | 63 | 884.8 |
| 20260505195614 | 50 | 27 | 4.3 | 6.1 | 0.00 | 0.00 | 0.00 | 61 | 884.8 |
| 20260505195111 | 50 | 65 | 6.1 | 7.0 | 0.00 | 0.00 | 0.00 | 62 | 884.5 |
| 20260505194608 | 49 | 80 | 4.3 | 6.1 | 0.00 | 0.00 | 0.00 | 63 | 884.9 |
| 20260505194104 | 49 | 80 | 0.0 | 0.9 | 0.00 | 0.00 | 0.00 | 64 | 884.8 |
| 20260505193601 | 50 | 75 | 2.6 | 4.3 | 0.00 | 0.00 | 0.00 | 62 | 884.5 |
| 20260505193058 | 50 | 38 | 5.2 | 6.1 | 0.00 | 0.00 | 0.00 | 62 | 884.8 |
| 20260505192557 | 50 | 64 | 1.7 | 2.6 | 0.00 | 0.00 | 0.00 | 62 | 885.0 |
| 20260505192054 | 50 | 168 | 0.0 | 0.0 | 0.00 | 0.00 | 0.00 | 62 | 884.8 |
| 20260505191552 | 50 | 17 | 3.5 | 6.1 | 0.00 | 0.00 | 0.00 | 62 | 884.9 |
| 20260505191049 | 50 | 58 | 2.6 | 5.2 | 0.00 | 0.00 | 0.00 | 62 | 884.8 |
| 20260505190544 | 49 | 80 | 1.7 | 4.3 | 0.00 | 0.00 | 0.00 | 63 | 885.1 |
| 20260505190040 | 49 | 74 | 2.6 | 4.3 | 0.00 | 0.00 | 0.00 | 63 | 885.0 |
| 20260505185537 | 49 | 60 | 2.6 | 4.3 | 0.00 | 0.00 | 0.00 | 62 | 885.1 |
| 20260505185034 | 50 | 77 | 5.2 | 6.1 | 0.00 | 0.00 | 0.00 | 62 | 885.0 |
| 20260505184530 | 50 | 78 | 0.0 | 0.0 | 0.00 | 0.00 | 0.00 | 61 | 885.2 |
| 20260505184027 | 50 | 65 | 0.0 | 0.9 | 0.00 | 0.00 | 0.00 | 61 | 885.0 |
| 20260505183524 | 50 | 63 | 0.9 | 1.7 | 0.00 | 0.00 | 0.00 | 61 | 885.1 |
| 20260505183022 | 50 | 74 | 0.0 | 1.7 | 0.00 | 0.00 | 0.00 | 62 | 885.3 |
| 20260505182518 | 50 | 42 | 3.5 | 5.2 | 0.00 | 0.00 | 0.00 | 61 | 885.3 |
| 20260505182015 | 49 | 46 | 2.6 | 4.3 | 0.00 | 0.00 | 0.00 | 61 | 885.4 |
| 20260505181511 | 49 | 30 | 1.7 | 2.6 | 0.00 | 0.00 | 0.00 | 62 | 885.4 |
| 20260505181008 | 48 | 73 | 0.0 | 0.0 | 0.00 | 0.00 | 0.00 | 64 | 885.4 |
| 20260505180504 | 48 | 29 | 1.7 | 2.6 | 0.00 | 0.00 | 0.00 | 64 | 885.4 |
| 20260505180002 | 48 | 81 | 0.0 | 0.9 | 0.00 | 0.00 | 0.00 | 65 | 885.4 |
| 20260505175457 | 47 | 60 | 2.6 | 7.0 | 0.00 | 0.00 | 0.00 | 66 | 885.4 |
| 20260505174954 | 48 | 246 | 3.5 | 6.1 | 0.00 | 0.00 | 0.00 | 64 | 885.7 |
| 20260505174451 | 48 | 354 | 2.6 | 5.2 | 0.00 | 0.00 | 0.00 | 65 | 885.5 |
| 20260505173947 | 48 | 165 | 2.6 | 6.1 | 0.00 | 0.00 | 0.00 | 65 | 885.5 |
| 20260505173444 | 47 | 139 | 2.6 | 5.2 | 0.00 | 0.00 | 0.00 | 66 | 885.3 |
| 20260505172941 | 47 | 274 | 0.9 | 1.7 | 0.00 | 0.00 | 0.00 | 67 | 885.8 |
| 20260505172439 | 48 | 62 | 4.3 | 7.0 | 0.00 | 0.00 | 0.00 | 65 | 885.9 |
| 20260505171938 | 47 | 252 | 0.0 | 0.0 | 0.00 | 0.00 | 0.00 | 67 | 885.5 |
| 20260505171436 | 47 | 313 | 3.5 | 6.1 | 0.00 | 0.00 | 0.00 | 67 | 885.7 |
| 20260505170932 | 48 | 207 | 2.6 | 4.3 | 0.00 | 0.00 | 0.00 | 66 | 886.0 |
| 20260505170429 | 47 | 38 | 0.9 | 2.6 | 0.00 | 0.00 | 0.00 | 68 | 885.9 |
| 20260505165924 | 48 | 328 | 6.1 | 7.8 | 0.00 | 0.00 | 0.00 | 67 | 885.9 |
| 20260505165421 | 48 | 39 | 1.7 | 2.6 | 0.00 | 0.00 | 0.00 | 67 | 885.9 |
| 20260505164916 | 48 | 336 | 2.6 | 5.2 | 0.00 | 0.00 | 0.00 | 66 | 885.9 |
| 20260505164413 | 48 | 334 | 3.5 | 5.2 | 0.00 | 0.00 | 0.00 | 66 | 885.8 |
| 20260505163911 | 48 | 79 | 2.6 | 2.6 | 0.00 | 0.00 | 0.00 | 66 | 885.7 |
| 20260505163410 | 48 | 111 | 0.0 | 0.0 | 0.00 | 0.00 | 0.00 | 67 | 885.9 |
| 20260505162908 | 48 | 39 | 4.3 | 5.2 | 0.00 | 0.00 | 0.00 | 65 | 885.8 |
| 20260505162403 | 48 | 350 | 2.6 | 4.3 | 0.00 | 0.00 | 0.00 | 65 | 885.5 |
| 20260505161900 | 48 | 262 | 2.6 | 4.3 | 0.00 | 0.00 | 0.00 | 65 | 885.4 |
| 20260505161357 | 48 | 66 | 0.9 | 1.7 | 0.00 | 0.00 | 0.00 | 63 | 885.8 |
| 20260505160855 | 49 | 357 | 2.6 | 5.2 | 0.00 | 0.00 | 0.00 | 62 | 885.8 |
| 20260505160353 | 48 | 281 | 0.9 | 2.6 | 0.00 | 0.00 | 0.00 | 64 | 885.7 |
| 20260505153331 | 47 | 54 | 6.1 | 7.8 | 0.00 | 0.00 | 0.00 | 64 | 885.7 |
| 20260505152828 | 47 | 274 | 2.6 | 5.2 | 0.00 | 0.00 | 0.00 | 63 | 885.8 |
| 20260505152325 | 46 | 52 | 4.3 | 7.0 | 0.00 | 0.00 | 0.00 | 64 | 885.8 |
| 20260505151820 | 46 | 78 | 4.3 | 7.0 | 0.00 | 0.00 | 0.00 | 64 | 885.8 |
| 20260505151317 | 46 | 29 | 0.9 | 1.7 | 0.00 | 0.00 | 0.00 | 64 | 885.8 |
| 20260505150814 | 47 | 316 | 3.5 | 5.2 | 0.00 | 0.00 | 0.00 | 63 | 885.7 |
| 20260505150311 | 46 | 12 | 2.6 | 4.3 | 0.00 | 0.00 | 0.00 | 64 | 885.5 |
| 20260505140235 | 46 | 60 | 0.9 | 1.7 | 0.00 | 0.00 | 0.00 | 62 | 885.5 |
| 20260505130159 | 46 | 300 | 1.7 | 2.6 | 0.00 | 0.00 | 0.00 | 60 | 884.5 |
| 20260505124649 | 46 | 356 | 2.6 | 5.2 | 0.00 | 0.00 | 0.00 | 60 | 884.3 |
| 20260505124145 | 46 | 25 | 0.9 | 1.7 | 0.00 | 0.00 | 0.00 | 60 | 884.2 |
| 20260505123641 | 45 | 28 | 0.9 | 2.6 | 0.00 | 0.00 | 0.00 | 61 | 884.3 |
| 20260505123138 | 45 | 16 | 2.6 | 2.6 | 0.00 | 0.00 | 0.00 | 61 | 884.3 |
| 20260505122635 | 45 | 23 | 2.6 | 4.3 | 0.00 | 0.00 | 0.00 | 61 | 884.0 |
| 20260505122132 | 45 | 359 | 4.3 | 6.1 | 0.00 | 0.00 | 0.00 | 61 | 884.3 |
| 20260505121628 | 45 | 17 | 4.3 | 7.0 | 0.00 | 0.00 | 0.00 | 62 | 884.3 |
| 20260505121125 | 45 | 18 | 1.7 | 2.6 | 0.00 | 0.00 | 0.00 | 62 | 883.8 |
| 20260505120621 | 44 | 19 | 0.0 | 0.0 | 0.00 | 0.00 | 0.00 | 63 | 883.6 |
| 20260505120117 | 44 | 304 | 2.6 | 4.3 | 0.00 | 0.00 | 0.00 | 63 | 883.2 |
| 20260505115612 | 44 | 35 | 2.6 | 5.2 | 0.00 | 0.00 | 0.00 | 63 | 883.1 |
| 20260505115110 | 44 | 27 | 1.7 | 1.7 | 0.00 | 0.00 | 0.00 | 63 | 883.1 |
| 20260505114606 | 44 | 22 | 1.7 | 2.6 | 0.00 | 0.00 | 0.00 | 63 | 883.2 |
| 20260505114103 | 44 | 15 | 1.7 | 1.7 | 0.00 | 0.00 | 0.00 | 63 | 883.1 |
| 20260505113559 | 44 | 22 | 1.7 | 4.3 | 0.00 | 0.00 | 0.00 | 63 | 883.1 |
| 20260505113056 | 44 | 339 | 4.3 | 7.0 | 0.00 | 0.00 | 0.00 | 62 | 883.2 |
| 20260505112552 | 44 | 317 | 3.5 | 7.0 | 0.00 | 0.00 | 0.00 | 63 | 883.1 |
| 20260505112050 | 44 | 31 | 1.7 | 2.6 | 0.00 | 0.00 | 0.00 | 63 | 883.1 |
| 20260505111544 | 44 | 30 | 0.9 | 2.6 | 0.00 | 0.00 | 0.00 | 64 | 883.1 |
| 20260505111040 | 45 | 54 | 0.0 | 0.9 | 0.00 | 0.00 | 0.00 | 64 | 883.2 |
| 20260505110537 | 45 | 26 | 3.5 | 5.2 | 0.00 | 0.00 | 0.00 | 64 | 883.5 |
| 20260505102009 | 47 | 41 | 3.5 | 4.3 | 0.00 | 0.00 | 0.00 | 61 | 883.4 |
| 20260505101508 | 47 | 344 | 0.9 | 2.6 | 0.00 | 0.00 | 0.00 | 60 | 883.1 |
| 20260505101004 | 48 | 35 | 2.6 | 4.3 | 0.00 | 0.00 | 0.00 | 60 | 882.9 |
| 20260505100501 | 48 | 34 | 2.6 | 4.3 | 0.00 | 0.00 | 0.00 | 59 | 882.9 |
| 20260505095957 | 48 | 277 | 3.5 | 4.3 | 0.00 | 0.00 | 0.00 | 59 | 882.8 |
| 20260505095454 | 48 | 4 | 0.0 | 0.0 | 0.00 | 0.00 | 0.00 | 59 | 882.7 |
| 20260505094950 | 49 | 64 | 5.2 | 8.7 | 0.00 | 0.00 | 0.00 | 58 | 882.7 |
| 20260505094447 | 49 | 32 | 2.6 | 5.2 | 0.00 | 0.00 | 0.00 | 58 | 882.6 |
| 20260505093943 | 49 | 115 | 2.6 | 2.6 | 0.00 | 0.00 | 0.00 | 58 | 882.6 |
| 20260505093440 | 50 | 22 | 2.6 | 4.3 | 0.00 | 0.00 | 0.00 | 58 | 882.7 |
| 20260505092937 | 50 | 257 | 1.7 | 2.6 | 0.00 | 0.00 | 0.00 | 58 | 883.0 |
| 20260505092435 | 50 | 15 | 2.6 | 5.2 | 0.00 | 0.00 | 0.00 | 58 | 882.7 |
| 20260505091932 | 50 | 339 | 6.1 | 8.7 | 0.00 | 0.00 | 0.00 | 57 | 882.8 |
| 20260505091430 | 51 | 346 | 6.1 | 8.7 | 0.00 | 0.00 | 0.00 | 57 | 882.7 |
| 20260505090928 | 51 | 8 | 7.0 | 9.6 | 0.00 | 0.00 | 0.00 | 57 | 882.9 |
| 20260505090426 | 51 | 12 | 7.0 | 11.3 | 0.00 | 0.00 | 0.00 | 58 | 882.7 |
| 20260505085922 | 51 | 352 | 0.9 | 1.7 | 0.00 | 0.00 | 0.00 | 58 | 882.5 |
| 20260505085420 | 51 | 353 | 2.6 | 4.3 | 0.00 | 0.00 | 0.00 | 58 | 882.8 |
| 20260505084918 | 51 | 253 | 3.5 | 4.3 | 0.00 | 0.00 | 0.00 | 57 | 882.8 |
| 20260505084416 | 52 | 277 | 4.3 | 6.1 | 0.00 | 0.00 | 0.00 | 59 | 882.5 |
| 20260505083914 | 52 | 341 | 3.5 | 5.2 | 0.00 | 0.00 | 0.00 | 59 | 882.3 |
| 20260505083411 | 52 | 266 | 1.7 | 2.6 | 0.00 | 0.00 | 0.00 | 59 | 882.5 |
| 20260505082907 | 52 | 38 | 2.6 | 5.2 | 0.00 | 0.00 | 0.00 | 58 | 882.4 |
| 20260505082403 | 53 | 323 | 6.1 | 7.0 | 0.00 | 0.00 | 0.00 | 58 | 882.3 |
| 20260505081900 | 53 | 286 | 2.6 | 2.6 | 0.00 | 0.00 | 0.00 | 58 | 882.2 |
| 20260505081357 | 54 | 55 | 3.5 | 6.1 | 0.00 | 0.00 | 0.00 | 58 | 882.0 |
| 20260505080854 | 54 | 352 | 7.8 | 11.3 | 0.00 | 0.00 | 0.00 | 57 | 882.1 |
| 20260505080350 | 54 | 343 | 3.5 | 4.3 | 0.00 | 0.00 | 0.00 | 56 | 882.0 |
| 20260505075845 | 55 | 181 | 2.6 | 4.3 | 0.00 | 0.00 | 0.00 | 55 | 881.8 |
| 20260505075342 | 55 | 0 | 0.9 | 1.7 | 0.00 | 0.00 | 0.00 | 54 | 881.8 |
| 20260505074840 | 56 | 228 | 1.7 | 6.1 | 0.00 | 0.00 | 0.00 | 53 | 881.6 |
| 20260505074337 | 56 | 155 | 1.7 | 2.6 | 0.00 | 0.00 | 0.00 | 51 | 881.6 |
| 20260505073834 | 57 | 27 | 2.6 | 4.3 | 0.00 | 0.00 | 0.00 | 48 | 881.5 |
| 20260505073332 | 59 | 237 | 1.7 | 1.7 | 0.00 | 0.00 | 0.00 | 38 | 881.8 |
| 20260505072829 | 59 | 336 | 2.6 | 4.3 | 0.00 | 0.00 | 0.00 | 37 | 881.5 |
| 20260505072325 | 60 | 351 | 3.5 | 5.2 | 0.00 | 0.00 | 0.00 | 36 | 881.4 |
| 20260505071821 | 60 | 1 | 5.2 | 7.0 | 0.00 | 0.00 | 0.00 | 35 | 881.5 |
| 20260505071317 | 61 | 350 | 4.3 | 5.2 | 0.00 | 0.00 | 0.00 | 35 | 881.6 |
| 20260505070816 | 61 | 282 | 5.2 | 6.1 | 0.00 | 0.00 | 0.00 | 34 | 881.3 |
| 20260505070312 | 61 | 319 | 2.6 | 5.2 | 0.00 | 0.00 | 0.00 | 34 | 881.0 |
| 20260505065807 | 62 | 331 | 2.6 | 4.3 | 0.00 | 0.00 | 0.00 | 33 | 881.2 |
| 20260505065304 | 62 | 356 | 2.6 | 4.3 | 0.00 | 0.00 | 0.00 | 32 | 881.1 |
| 20260505064801 | 62 | 356 | 2.6 | 5.2 | 0.00 | 0.00 | 0.00 | 32 | 880.8 |
| 20260505064258 | 62 | 2 | 5.2 | 7.0 | 0.00 | 0.00 | 0.00 | 31 | 880.6 |
| 20260505063756 | 62 | 343 | 4.3 | 5.2 | 0.00 | 0.00 | 0.00 | 31 | 880.7 |
| 20260505063252 | 62 | 343 | 3.5 | 5.2 | 0.00 | 0.00 | 0.00 | 30 | 880.6 |
| 20260505062749 | 63 | 315 | 2.6 | 4.3 | 0.00 | 0.00 | 0.00 | 28 | 880.5 |
| 20260505062246 | 63 | 291 | 3.5 | 5.2 | 0.00 | 0.00 | 0.00 | 28 | 880.4 |
| 20260505061743 | 64 | 347 | 1.7 | 2.6 | 0.00 | 0.00 | 0.00 | 27 | 880.4 |
| 20260505061241 | 64 | 347 | 4.3 | 7.0 | 0.00 | 0.00 | 0.00 | 26 | 880.4 |
| 20260505060738 | 64 | 9 | 4.3 | 7.0 | 0.00 | 0.00 | 0.00 | 25 | 880.2 |
| 20260505060235 | 64 | 315 | 3.5 | 5.2 | 0.00 | 0.00 | 0.00 | 24 | 880.1 |
| 20260505055730 | 64 | 255 | 4.3 | 6.1 | 0.00 | 0.00 | 0.00 | 24 | 880.0 |
| 20260505055227 | 64 | 8 | 4.3 | 6.1 | 0.00 | 0.00 | 0.00 | 23 | 880.2 |
| 20260505054724 | 63 | 250 | 5.2 | 6.1 | 0.00 | 0.00 | 0.00 | 23 | 880.0 |
| 20260505054222 | 63 | 250 | 7.0 | 8.7 | 0.00 | 0.00 | 0.00 | 23 | 879.7 |
| 20260505053720 | 63 | 258 | 5.2 | 7.0 | 0.00 | 0.00 | 0.00 | 23 | 879.9 |
| 20260505053216 | 63 | 288 | 7.8 | 8.7 | 0.00 | 0.00 | 0.00 | 23 | 879.8 |
| 20260505052714 | 63 | 275 | 11.3 | 14.8 | 0.00 | 0.00 | 0.00 | 23 | 879.9 |
| 20260505052210 | 64 | 248 | 6.1 | 7.8 | 0.00 | 0.00 | 0.00 | 23 | 879.8 |
| 20260505051708 | 64 | 264 | 8.7 | 11.3 | 0.00 | 0.00 | 0.00 | 22 | 879.7 |
| 20260505051206 | 64 | 260 | 5.2 | 8.7 | 0.00 | 0.00 | 0.00 | 22 | 879.7 |
| 20260505050703 | 65 | 261 | 8.7 | 11.3 | 0.00 | 0.00 | 0.00 | 21 | 879.6 |
| 20260505050201 | 64 | 266 | 6.1 | 7.0 | 0.00 | 0.00 | 0.00 | 22 | 879.7 |
| 20260505041631 | 64 | 299 | 5.2 | 8.7 | 0.00 | 0.00 | 0.00 | 23 | 879.7 |
| 20260505041128 | 64 | 260 | 4.3 | 6.1 | 0.00 | 0.00 | 0.00 | 22 | 879.8 |
| 20260505040625 | 65 | 306 | 4.3 | 7.0 | 0.00 | 0.00 | 0.00 | 22 | 879.9 |
| 20260505040122 | 66 | 283 | 6.1 | 7.0 | 0.00 | 0.00 | 0.00 | 21 | 879.7 |
| 20260505035618 | 66 | 277 | 8.7 | 9.6 | 0.00 | 0.00 | 0.00 | 21 | 879.6 |
| 20260505035115 | 66 | 276 | 9.6 | 11.3 | 0.00 | 0.00 | 0.00 | 20 | 879.5 |
| 20260505034612 | 67 | 261 | 7.8 | 9.6 | 0.00 | 0.00 | 0.00 | 20 | 879.7 |
| 20260505034109 | 67 | 290 | 6.1 | 8.7 | 0.00 | 0.00 | 0.00 | 20 | 879.6 |
| 20260505033605 | 67 | 292 | 8.7 | 12.2 | 0.00 | 0.00 | 0.00 | 20 | 879.6 |
| 20260505033104 | 67 | 230 | 9.6 | 13.0 | 0.00 | 0.00 | 0.00 | 19 | 879.7 |
| 20260505032601 | 67 | 257 | 7.0 | 7.8 | 0.00 | 0.00 | 0.00 | 20 | 879.5 |
| 20260505032057 | 68 | 292 | 7.8 | 9.6 | 0.00 | 0.00 | 0.00 | 20 | 879.4 |
| 20260505031555 | 68 | 278 | 7.8 | 9.6 | 0.00 | 0.00 | 0.00 | 19 | 879.3 |
| 20260505031051 | 68 | 278 | 7.0 | 9.6 | 0.00 | 0.00 | 0.00 | 19 | 879.1 |
| 20260505030548 | 68 | 257 | 6.1 | 7.0 | 0.00 | 0.00 | 0.00 | 19 | 879.3 |
| 20260505030044 | 68 | 318 | 6.1 | 8.7 | 0.00 | 0.00 | 0.00 | 19 | 879.2 |
| 20260505025540 | 69 | 256 | 4.3 | 7.8 | 0.00 | 0.00 | 0.00 | 18 | 879.1 |
| 20260505025039 | 69 | 233 | 6.1 | 7.8 | 0.00 | 0.00 | 0.00 | 18 | 879.0 |
| 20260505024536 | 69 | 236 | 8.7 | 12.2 | 0.00 | 0.00 | 0.00 | 17 | 878.8 |
| 20260505024033 | 69 | 264 | 5.2 | 7.0 | 0.00 | 0.00 | 0.00 | 17 | 878.7 |
| 20260505023530 | 69 | 262 | 6.1 | 7.0 | 0.00 | 0.00 | 0.00 | 16 | 878.8 |
| 20260505023027 | 69 | 244 | 9.6 | 12.2 | 0.00 | 0.00 | 0.00 | 16 | 878.7 |
| 20260505022525 | 70 | 233 | 7.0 | 9.6 | 0.00 | 0.00 | 0.00 | 16 | 878.7 |
| 20260505022022 | 70 | 254 | 7.0 | 8.7 | 0.00 | 0.00 | 0.00 | 16 | 878.8 |
| 20260505021518 | 70 | 268 | 6.1 | 7.8 | 0.00 | 0.00 | 0.00 | 17 | 878.7 |
| 20260505021015 | 70 | 228 | 2.6 | 2.6 | 0.00 | 0.00 | 0.00 | 18 | 878.7 |
| 20260505020514 | 70 | 251 | 4.3 | 5.2 | 0.00 | 0.00 | 0.00 | 18 | 878.4 |
| 20260505020012 | 70 | 225 | 1.7 | 1.7 | 0.00 | 0.00 | 0.00 | 19 | 878.7 |
| 20260505015509 | 70 | 245 | 2.6 | 2.6 | 0.00 | 0.00 | 0.00 | 19 | 878.2 |
| 20260505015006 | 70 | 222 | 0.9 | 0.9 | 0.00 | 0.00 | 0.00 | 19 | 878.3 |
| 20260505014503 | 71 | 225 | 0.9 | 0.9 | 0.00 | 0.00 | 0.00 | 18 | 878.4 |
| 20260505014000 | 71 | 233 | 3.5 | 4.3 | 0.00 | 0.00 | 0.00 | 18 | 878.4 |
| 20260505013457 | 71 | 222 | 3.5 | 5.2 | 0.00 | 0.00 | 0.00 | 18 | 878.2 |
| 20260505012954 | 72 | 253 | 3.5 | 4.3 | 0.00 | 0.00 | 0.00 | 18 | 878.3 |
| 20260505012452 | 72 | 240 | 0.9 | 1.7 | 0.00 | 0.00 | 0.00 | 18 | 878.4 |
| 20260505011949 | 73 | 244 | 2.6 | 4.3 | 0.00 | 0.00 | 0.00 | 18 | 878.3 |
| 20260505011445 | 73 | 243 | 3.5 | 4.3 | 0.00 | 0.00 | 0.00 | 18 | 878.3 |
| 20260505010942 | 73 | 241 | 4.3 | 5.2 | 0.00 | 0.00 | 0.00 | 17 | 878.1 |
| 20260505010437 | 74 | 257 | 4.3 | 7.0 | 0.00 | 0.00 | 0.00 | 17 | 878.3 |
| 20260505005934 | 74 | 246 | 4.3 | 6.1 | 0.00 | 0.00 | 0.00 | 17 | 878.3 |
| 20260505005431 | 75 | 241 | 4.3 | 6.1 | 0.00 | 0.00 | 0.00 | 17 | 878.4 |
| 20260505004928 | 75 | 235 | 4.3 | 6.1 | 0.00 | 0.00 | 0.00 | 16 | 878.3 |
| 20260505004425 | 75 | 189 | 4.3 | 6.1 | 0.00 | 0.00 | 0.00 | 16 | 878.4 |
| 20260505003922 | 75 | 260 | 6.1 | 7.8 | 0.00 | 0.00 | 0.00 | 15 | 878.3 |
| 20260505003419 | 75 | 269 | 7.0 | 7.8 | 0.00 | 0.00 | 0.00 | 15 | 878.6 |
| 20260505002915 | 76 | 247 | 6.1 | 7.8 | 0.00 | 0.00 | 0.00 | 16 | 878.4 |
| 20260505002411 | 76 | 272 | 4.3 | 7.0 | 0.00 | 0.00 | 0.00 | 17 | 878.4 |
| 20260505001910 | 76 | 242 | 1.7 | 1.7 | 0.00 | 0.00 | 0.00 | 18 | 878.4 |
| 20260505001407 | 76 | 237 | 2.6 | 2.6 | 0.00 | 0.00 | 0.00 | 18 | 878.6 |
| 20260505000904 | 76 | 251 | 1.7 | 2.6 | 0.00 | 0.00 | 0.00 | 18 | 878.4 |
| 20260505000402 | 76 | 234 | 4.3 | 6.1 | 0.00 | 0.00 | 0.00 | 18 | 878.8 |
| 20260504235858 | 77 | 238 | 6.1 | 7.0 | 0.00 | 0.00 | 0.00 | 18 | 878.8 |
| 20260504235355 | 77 | 202 | 4.3 | 6.1 | 0.00 | 0.00 | 0.00 | 18 | 878.9 |
| 20260504234852 | 77 | 252 | 4.3 | 7.0 | 0.00 | 0.00 | 0.00 | 20 | 878.7 |
| 20260504234349 | 77 | 149 | 3.5 | 5.2 | 0.00 | 0.00 | 0.00 | 21 | 878.8 |
| 20260504233846 | 77 | 224 | 5.2 | 7.0 | 0.00 | 0.00 | 0.00 | 19 | 878.8 |
| 20260504233341 | 77 | 228 | 8.7 | 9.6 | 0.00 | 0.00 | 0.00 | 20 | 879.1 |
| 20260504232838 | 78 | 223 | 6.1 | 8.7 | 0.00 | 0.00 | 0.00 | 20 | 878.8 |
| 20260504232336 | 78 | 209 | 3.5 | 5.2 | 0.00 | 0.00 | 0.00 | 18 | 879.1 |
| 20260504231832 | 78 | 244 | 5.2 | 9.6 | 0.00 | 0.00 | 0.00 | 19 | 878.8 |
| 20260504231329 | 78 | 196 | 7.0 | 8.7 | 0.00 | 0.00 | 0.00 | 20 | 878.9 |
| 20260504230825 | 78 | 230 | 7.8 | 8.7 | 0.00 | 0.00 | 0.00 | 18 | 878.9 |
| 20260504230323 | 78 | 228 | 2.6 | 5.2 | 0.00 | 0.00 | 0.00 | 18 | 879.1 |
| 20260504225822 | 79 | 214 | 6.1 | 7.8 | 0.00 | 0.00 | 0.00 | 19 | 878.9 |
| 20260504225317 | 78 | 244 | 1.7 | 2.6 | 0.00 | 0.00 | 0.00 | 21 | 879.0 |
| 20260504224815 | 78 | 232 | 4.3 | 5.2 | 0.00 | 0.00 | 0.00 | 19 | 879.1 |
| 20260504224312 | 79 | 243 | 1.7 | 2.6 | 0.00 | 0.00 | 0.00 | 19 | 879.2 |
| 20260504223809 | 79 | 242 | 7.8 | 9.6 | 0.00 | 0.00 | 0.00 | 18 | 879.2 |
| 20260504223304 | 79 | 270 | 5.2 | 7.0 | 0.00 | 0.00 | 0.00 | 18 | 879.1 |
| 20260504222801 | 79 | 237 | 5.2 | 6.1 | 0.00 | 0.00 | 0.00 | 18 | 879.2 |
| 20260504222258 | 79 | 264 | 5.2 | 6.1 | 0.00 | 0.00 | 0.00 | 18 | 879.3 |
| 20260504221756 | 79 | 247 | 4.3 | 5.2 | 0.00 | 0.00 | 0.00 | 18 | 879.4 |
| 20260504221253 | 79 | 260 | 7.0 | 7.8 | 0.00 | 0.00 | 0.00 | 19 | 879.5 |
| 20260504220749 | 78 | 327 | 5.2 | 7.0 | 0.00 | 0.00 | 0.00 | 19 | 879.5 |
| 20260504220246 | 78 | 279 | 7.8 | 9.6 | 0.00 | 0.00 | 0.00 | 19 | 879.4 |
| 20260504215744 | 78 | 202 | 7.8 | 8.7 | 0.00 | 0.00 | 0.00 | 20 | 879.4 |
| 20260504215240 | 77 | 217 | 5.2 | 6.1 | 0.00 | 0.00 | 0.00 | 20 | 879.5 |
| 20260504214736 | 78 | 221 | 5.2 | 6.1 | 0.00 | 0.00 | 0.00 | 19 | 879.7 |